Weather History for KAVP - August, 2013

Change the Weather History Date:

Tuesday, August 13, 2013

  Actual Average Record
Temperature  
Mean Temperature 72 °F 70 °F  
Max Temperature 82 °F 81 °F 98 °F (1944)
Min Temperature 62 °F 60 °F 42 °F (1930)
Degree Days  
Heating Degree Days 0 0  
Month to date heating degree days 1 0  
Since 1 June heating degree days 23 62  
Since 1 July heating degree days 2 8  
Cooling Degree Days 7 6  
Month to date cooling degree days 61 78  
Year to date cooling degree days 590 438  
Since 1 June cooling degree days 526 401  
Growing Degree Days 24 (Base 50)    
Moisture  
Dew Point 62 °F    
Average Humidity 71    
Maximum Humidity 87    
Minimum Humidity 54    
Precipitation  
Precipitation 0.19 in 0.11 in 2.86 in (1955)
Month to date precipitation 0.80 1.51  
Year to date precipitation 17.72 23.13  
Sea Level Pressure  
Sea Level Pressure 29.79 in    
Wind  
Wind Speed 5 mph (WNW)    
Max Wind Speed 22 mph    
Max Gust Speed 26 mph    
Visibility 8 miles    
Events Rain    
T = Trace of Precipitation, MM = Missing Value Source: NWS Daily Summary

Daily Weather History Graph

Daily Weather History Graph

Search for Another Location

Airport or City:

Trip Planner

Search our weather history database for the weather conditions in past years. The results will help you decide how hot, cold, wet, or windy it might be!

Date:

Astronomy

Aug. 13, 2013 Rise Set
Actual Time 6:10 AM EDT 8:04 PM EDT
Civil Twilight 5:40 AM EDT 8:34 PM EDT
Nautical Twilight 5:03 AM EDT 9:10 PM EDT
Astronomical Twilight 4:24 AM EDT 9:49 PM EDT
Moon 1:07 PM EDT (8/13) 11:32 PM EDT (8/13)
Length of Visible Light 14h 53m
Length of Day
13h 54m
Waxing Crescent, 41% of the Moon is Illuminated
Aug 13
Waxing Crescent
Aug 14
First Quarter
Aug 20
Full
Aug 28
Last Quarter
Sep 5
New

Hourly Weather History & Observations

Time (EDT) Temp. Heat Index Dew Point Humidity Pressure Visibility Wind Dir Wind Speed Gust Speed Precip Events Conditions
1:54 AM 68.0 °F - 60.1 °F 76% 29.88 in 10.0 mi East 3.5 mph - N/A   Clear
2:54 AM 68.0 °F - 60.1 °F 76% 29.85 in 10.0 mi East 3.5 mph - N/A   Clear
3:54 AM 68.0 °F - 60.1 °F 76% 29.83 in 10.0 mi Calm Calm - N/A   Clear
4:54 AM 71.1 °F - 62.1 °F 73% 29.81 in 10.0 mi Calm Calm - N/A   Mostly Cloudy
5:54 AM 69.1 °F - 63.0 °F 81% 29.79 in 9.0 mi Calm Calm - 0.00 in Rain Light Rain
6:54 AM 69.1 °F - 64.0 °F 84% 29.79 in 5.0 mi NW 3.5 mph - 0.04 in Rain Light Rain
7:12 AM 68.0 °F - 64.4 °F 88% 29.81 in 4.0 mi West 4.6 mph - 0.01 in Rain Light Rain
7:54 AM 68.0 °F - 64.0 °F 87% 29.80 in 4.0 mi South 6.9 mph - 0.03 in Rain Light Rain
8:04 AM 68.0 °F - 64.4 °F 88% 29.81 in 4.0 mi Variable 4.6 mph - 0.00 in Rain Light Rain
8:28 AM 68.0 °F - 64.4 °F 88% 29.82 in 3.0 mi WSW 3.5 mph - 0.01 in Rain Light Rain
8:37 AM 66.2 °F - 64.4 °F 94% 29.82 in 2.0 mi Variable 4.6 mph - 0.01 in Rain Light Rain
8:44 AM 68.0 °F - 64.4 °F 88% 29.82 in 3.0 mi Calm Calm - 0.02 in Rain Light Rain
8:54 AM 68.0 °F - 64.0 °F 87% 29.80 in 8.0 mi WSW 4.6 mph - 0.02 in   Overcast
9:54 AM 68.0 °F - 62.1 °F 81% 29.80 in 3.0 mi WSW 4.6 mph - 0.01 in Rain Light Rain
10:25 AM 66.2 °F - 64.4 °F 94% 29.81 in 6.0 mi Calm Calm - 0.00 in   Overcast
10:36 AM 68.0 °F - 64.4 °F 88% 29.80 in 7.0 mi Calm Calm - 0.00 in   Overcast
10:54 AM 69.1 °F - 64.0 °F 84% 29.78 in 10.0 mi Calm Calm - 0.00 in   Mostly Cloudy
11:15 AM 71.6 °F - 64.4 °F 78% 29.79 in 10.0 mi Variable 4.6 mph - N/A   Mostly Cloudy
11:54 AM 75.0 °F - 63.0 °F 66% 29.76 in 10.0 mi SW 8.1 mph - N/A   Mostly Cloudy
12:45 PM 75.2 °F - 64.4 °F 69% 29.78 in 10.0 mi West 8.1 mph - N/A   Mostly Cloudy
12:54 PM 75.0 °F - 63.0 °F 66% 29.76 in 10.0 mi West 9.2 mph - N/A   Mostly Cloudy
1:54 PM 77.0 °F - 63.0 °F 62% 29.75 in 10.0 mi SW 6.9 mph - N/A   Scattered Clouds
2:54 PM 79.0 °F - 62.1 °F 56% 29.72 in 10.0 mi SW 8.1 mph 17.3 mph N/A   Partly Cloudy
3:54 PM 80.1 °F 81.2 °F 62.1 °F 54% 29.70 in 10.0 mi WSW 12.7 mph 18.4 mph N/A   Partly Cloudy
4:06 PM 69.8 °F - 64.4 °F 83% 29.74 in 2.0 mi NNW 11.5 mph 25.3 mph 0.01 in Rain Heavy Rain
4:20 PM 69.8 °F - 66.2 °F 88% 29.75 in 10.0 mi Calm Calm - 0.09 in Rain Light Rain
4:54 PM 75.0 °F - 64.9 °F 71% 29.71 in 10.0 mi NE 4.6 mph - 0.09 in   Partly Cloudy
5:54 PM 77.0 °F - 64.0 °F 64% 29.71 in 10.0 mi North 3.5 mph - N/A   Partly Cloudy
6:54 PM 73.0 °F - 60.1 °F 64% 29.73 in 10.0 mi NW 9.2 mph - 0.00 in   Mostly Cloudy
7:54 PM 73.0 °F - 61.0 °F 66% 29.76 in 10.0 mi North 4.6 mph - N/A   Overcast
8:54 PM 71.1 °F - 61.0 °F 70% 29.77 in 10.0 mi NE 3.5 mph - N/A   Overcast
9:04 PM 71.6 °F - 60.8 °F 69% 29.80 in 10.0 mi NNW 4.6 mph - N/A   Overcast
9:41 PM 69.8 °F - 60.8 °F 73% 29.81 in 10.0 mi North 4.6 mph - N/A   Mostly Cloudy
9:54 PM 68.0 °F - 55.9 °F 65% 29.79 in 10.0 mi NNW 10.4 mph - N/A   Partly Cloudy
10:54 PM 66.0 °F - 52.0 °F 60% 29.82 in 10.0 mi North 9.2 mph 20.7 mph N/A   Clear
11:54 PM 63.0 °F - 46.9 °F 56% 29.83 in 10.0 mi NW 8.1 mph - N/A   Scattered Clouds